Location: Albany
(35.0000°S, 118.0000°E)
Time: 10:39:05
(UTC-05:00)

Transit 2A - Visible Passes

Search period start: 03 December 2016 00:00
Search period end: 13 December 2016 00:00
Orbit: 597 x 963 km, 66.7° (Epoch: 02 December)

Date Brightness Start Highest point End Pass type
(mag) Time Alt. Az. Time Alt. Az. Time Alt. Az.
03 Dec 5.5 07:38:16 10° NNW 07:42:42 82° ENE 07:47:32 10° SSE visible
03 Dec 8.9 09:25:16 10° WSW 09:26:39 11° SW 09:28:04 10° SSW visible
04 Dec 5.8 07:04:31 10° N 07:08:47 49° ENE 07:13:25 10° SE visible
04 Dec 8.6 08:49:25 10° W 08:52:20 16° SW 08:55:25 10° S visible
05 Dec 8.1 08:14:25 10° WNW 08:18:06 24° SW 08:22:03 10° S visible
06 Dec 7.4 07:39:48 10° WNW 07:43:56 35° WSW 07:48:27 10° S visible
06 Dec 9.6 14:46:46 10° SSE 14:49:55 14° SE 14:53:08 10° E visible
07 Dec 6.5 07:05:28 10° NW 07:09:51 56° WSW 07:14:41 10° SSE visible
07 Dec 10.0 14:15:21 10° SE 14:15:33 10° SE 14:15:44 10° SE visible
08 Dec 9.4 08:19:13 10° SW 08:19:55 10° SW 08:20:37 10° SW visible
09 Dec 9.0 07:42:51 10° W 07:45:35 15° SW 07:48:27 10° SSW visible
09 Dec 8.6 14:46:27 10° S 14:51:41 30° SE 14:57:09 10° ENE visible
10 Dec 8.6 07:07:44 10° WNW 07:11:19 22° SW 07:15:11 10° S visible
10 Dec 9.1 14:12:56 10° S 14:17:30 22° SE 14:22:13 10° E visible
11 Dec 9.4 13:39:40 10° SSE 13:43:13 16° SE 13:46:53 10° E visible
12 Dec 9.6 13:07:07 10° SSE 13:08:52 11° SE 13:10:39 10° ESE visible
12 Dec 7.0 14:47:06 10° SSW 14:53:09 65° ESE 14:59:28 10° NE visible
